STARLINK-3106 (49164 NORAD) Tracking and Keplerian Element Data

This shows tracking and keplerian element data for the satellite.

Feedback or suggestion? Click here.




ElementValue
Catalog49164
NameSTARLINK-3106
Epoch Orbit367
Epoch Day300.58334491
Epoch Year2021
RAAN4.6589
Inclination70.0008
Eccentricity0.0003775
Argument of Perigee294.2614
Mean Anonmoly119.0748
Mean Motion15.69708132
Decay Rate0.00057169
L11 49164U 21082AL 21300.58334491 .00057169 00000-0 47819-3 0 9990
L22 49164 70.0008 4.6589 0003775 294.2614 119.0748 15.69708132 3671

Live tracking and technical data element details for STARLINK-3106 (NORAD 49164). STARLINK-3106 can be tracked NOW for your location showing map with azimuth and elevation plus other details from your city location.

Track the satellite on the map from your city or location and see movement details for azimuth, elevation, latitude, longitude, range, height, and movement on the map or in text.







IsCatalogInMostPopularTable: catalog: 49164, numindb: 5
Update: records affected: 1



GetName: 49164 STARLINK-3106

Hit Count: updated at: Thu, 28 Oct 2021 10:27:27 GMT